,,PA_Meas_PMT16A,,PR_Meas_QMR101_102,,RH_Meas_QMH101,,SR_Meas_QMS101,,TA_Meas_QMH101,,GenWind,,GenWind,
time,status,PA,status,PR,status,RH,status,SR,status,TA,status,DirAvg,status,SpdAvg,
2014-09-24, 00:00:04,VALID,917.118,VALID,0,VALID,97.3434,VALID,0,VALID,19.2933,VALID,175,VALID,0,
2014-09-24, 00:01:04,VALID,917.089,VALID,0,VALID,97.351,VALID,0,VALID,19.2543,VALID,175,VALID,0,
2014-09-24, 00:02:04,VALID,917.076,VALID,0,VALID,97.3434,VALID,0,VALID,19.1763,VALID,175,VALID,0,
2014-09-24, 00:03:04,VALID,917.04,VALID,0,VALID,97.3586,VALID,0,VALID,19.0983,VALID,172,VALID,0,
2014-09-24, 00:04:04,VALID,917.036,VALID,0,VALID,97.3281,VALID,0,VALID,19.0203,VALID,172,VALID,0,
2014-09-24, 00:05:04,VALID,916.955,VALID,0,VALID,97.29,VALID,0,VALID,18.9424,VALID,171,VALID,0,
2014-09-24, 00:06:04,VALID,916.995,VALID,0,VALID,97.2672,VALID,0,VALID,18.8629,VALID,171,VALID,0,
2014-09-24, 00:07:04,VALID,916.973,VALID,0,VALID,97.229,VALID,0.107441,VALID,18.8839,VALID,171,VALID,0,
2014-09-24, 00:08:04,VALID,916.941,VALID,0,VALID,97.2062,VALID,0,VALID,18.8839,VALID,171,VALID,0,
2014-09-24, 00:09:04,VALID,916.966,VALID,0,VALID,97.1757,VALID,0.107441,VALID,18.8839,VALID,171,VALID,0,
2014-09-24, 00:10:04,VALID,916.948,VALID,0,VALID,97.1604,VALID,0,VALID,18.8853,VALID,172,VALID,0,
2014-09-24, 00:11:04,VALID,916.939,VALID,0,VALID,97.1452,VALID,0,VALID,18.9243,VALID,175,VALID,0,
2014-09-24, 00:12:04,VALID,916.949,VALID,0,VALID,97.1452,VALID,0,VALID,18.9633,VALID,175,VALID,0,
2014-09-24, 00:13:04,VALID,916.924,VALID,0,VALID,97.1452,VALID,0,VALID,18.9424,VALID,175,VALID,0,
2014-09-24, 00:14:04,VALID,916.917,VALID,0,VALID,97.1376,VALID,0.107441,VALID,18.9424,VALID,175,VALID,0,
2014-09-24, 00:15:04,VALID,916.935,VALID,0,VALID,97.1452,VALID,0,VALID,18.9229,VALID,175,VALID,0,
2014-09-24, 00:16:04,VALID,916.915,VALID,0,VALID,97.1452,VALID,0,VALID,18.9229,VALID,175,VALID,0,
2014-09-24, 00:17:04,VALID,916.904,VALID,0,VALID,97.1528,VALID,0,VALID,18.9034,VALID,175,VALID,0,
2014-09-24, 00:18:04,VALID,916.924,VALID,0,VALID,97.1604,VALID,0,VALID,18.8839,VALID,175,VALID,0,
2014-09-24, 00:19:04,VALID,916.928,VALID,0,VALID,97.1681,VALID,0.107441,VALID,18.9034,VALID,175,VALID,0,
2014-09-24, 00:20:04,VALID,916.926,VALID,0,VALID,97.1833,VALID,0,VALID,18.9034,VALID,175,VALID,0,
2014-09-24, 00:21:04,VALID,916.929,VALID,0,VALID,97.1681,VALID,0,VALID,18.9229,VALID,175,VALID,0,
2014-09-24, 00:22:04,VALID,916.905,VALID,0,VALID,97.2062,VALID,0,VALID,18.9229,VALID,175,VALID,0,
2014-09-24, 00:23:04,VALID,916.893,VALID,0,VALID,97.2138,VALID,0,VALID,18.9214,VALID,175,VALID,0,
2014-09-24, 00:24:04,VALID,916.905,VALID,0,VALID,97.2062,VALID,0,VALID,18.9633,VALID,175,VALID,0,
2014-09-24, 00:25:04,VALID,916.902,VALID,0,VALID,97.229,VALID,0,VALID,18.9424,VALID,175,VALID,0,
2014-09-24, 00:26:04,VALID,916.872,VALID,0,VALID,97.229,VALID,0,VALID,18.9229,VALID,175,VALID,0,
2014-09-24, 00:27:04,VALID,916.895,VALID,0,VALID,97.2214,VALID,0,VALID,18.9243,VALID,175,VALID,0,
2014-09-24, 00:28:04,VALID,916.853,VALID,0,VALID,97.2595,VALID,0,VALID,18.9438,VALID,175,VALID,0,
2014-09-24, 00:29:04,VALID,916.818,VALID,0,VALID,97.2443,VALID,0,VALID,18.9034,VALID,175,VALID,0,
2014-09-24, 00:30:04,VALID,916.86,VALID,0,VALID,97.2748,VALID,0,VALID,18.9243,VALID,175,VALID,0,
2014-09-24, 00:31:04,VALID,916.85,VALID,0,VALID,97.2519,VALID,0,VALID,18.9229,VALID,175,VALID,0,
2014-09-24, 00:32:04,VALID,916.852,VALID,0,VALID,97.2672,VALID,0.107441,VALID,18.9814,VALID,235,VALID,0,
2014-09-24, 00:33:04,VALID,916.837,VALID,0,VALID,97.2824,VALID,0,VALID,18.9619,VALID,235,VALID,0,
2014-09-24, 00:34:04,VALID,916.84,VALID,0,VALID,97.2824,VALID,0,VALID,18.9633,VALID,235,VALID,0,
2014-09-24, 00:35:04,VALID,916.853,VALID,0,VALID,97.2824,VALID,0,VALID,18.9034,VALID,241,VALID,0,
2014-09-24, 00:36:04,VALID,916.819,VALID,0,VALID,97.29,VALID,0.107441,VALID,18.9034,VALID,239,VALID,0,
2014-09-24, 00:37:04,VALID,916.809,VALID,0,VALID,97.29,VALID,0,VALID,18.9243,VALID,240,VALID,0,
2014-09-24, 00:38:04,VALID,916.813,VALID,0,VALID,97.2977,VALID,0,VALID,18.9229,VALID,257,VALID,0,
2014-09-24, 00:39:04,VALID,916.823,VALID,0,VALID,97.29,VALID,0,VALID,18.9034,VALID,267,VALID,0,
2014-09-24, 00:40:04,VALID,916.812,VALID,0,VALID,97.3053,VALID,0,VALID,18.9034,VALID,242,VALID,0.129688,
2014-09-24, 00:41:04,VALID,916.779,VALID,0,VALID,97.3205,VALID,0,VALID,18.9034,VALID,258,VALID,0,
2014-09-24, 00:42:04,VALID,916.783,VALID,0,VALID,97.2977,VALID,0.107441,VALID,18.9243,VALID,251,VALID,0,
2014-09-24, 00:43:04,VALID,916.778,VALID,0,VALID,97.2824,VALID,0,VALID,18.9243,VALID,251,VALID,0,
2014-09-24, 00:44:04,VALID,916.756,VALID,0,VALID,97.2977,VALID,0.107441,VALID,18.8839,VALID,250,VALID,0,
2014-09-24, 00:45:04,VALID,916.764,VALID,0,VALID,97.2748,VALID,0,VALID,18.8644,VALID,250,VALID,0,
2014-09-24, 00:46:04,VALID,916.783,VALID,0,VALID,97.2519,VALID,0,VALID,18.8644,VALID,250,VALID,0,
2014-09-24, 00:47:04,VALID,916.808,VALID,0,VALID,97.2443,VALID,0,VALID,18.8254,VALID,244,VALID,0,
2014-09-24, 00:48:04,VALID,916.788,VALID,0,VALID,97.2367,VALID,0,VALID,18.8268,VALID,245,VALID,0,
2014-09-24, 00:49:04,VALID,916.836,VALID,0,VALID,97.1681,VALID,0,VALID,18.8073,VALID,247,VALID,0,
2014-09-24, 00:50:04,VALID,916.867,VALID,0,VALID,97.069,VALID,0,VALID,18.7864,VALID,246,VALID,0,
2014-09-24, 00:51:04,VALID,916.855,VALID,0,VALID,96.947,VALID,0,VALID,18.7864,VALID,246,VALID,0,
2014-09-24, 00:52:04,VALID,916.842,VALID,0,VALID,96.8174,VALID,0.107441,VALID,18.8073,VALID,246,VALID,0,
2014-09-24, 00:53:04,VALID,916.876,VALID,0,VALID,96.6954,VALID,0,VALID,18.7474,VALID,246,VALID,0,
2014-09-24, 00:54:04,VALID,916.836,VALID,0,VALID,96.5429,VALID,0,VALID,18.7683,VALID,246,VALID,0,
2014-09-24, 00:55:04,VALID,916.837,VALID,0,VALID,96.3981,VALID,0.107441,VALID,18.7488,VALID,246,VALID,0,
2014-09-24, 00:56:04,VALID,916.849,VALID,0,VALID,96.2075,VALID,0,VALID,18.6708,VALID,246,VALID,0,
2014-09-24, 00:57:04,VALID,916.855,VALID,0,VALID,96.0093,VALID,0.107441,VALID,18.5525,VALID,246,VALID,0,
2014-09-24, 00:58:04,VALID,916.806,VALID,0,VALID,95.9636,VALID,0,VALID,18.533,VALID,246,VALID,0,
2014-09-24, 00:59:04,VALID,916.773,VALID,0,VALID,95.9941,VALID,0,VALID,18.5539,VALID,246,VALID,0,
2014-09-24, 01:00:04,VALID,916.806,VALID,0,VALID,95.9788,VALID,0,VALID,18.533,VALID,246,VALID,0,
2014-09-24, 01:01:04,VALID,916.786,VALID,0,VALID,95.9102,VALID,0,VALID,18.5344,VALID,246,VALID,0,
2014-09-24, 01:02:04,VALID,916.8,VALID,0,VALID,95.7806,VALID,0,VALID,18.5149,VALID,246,VALID,0,
2014-09-24, 01:03:04,VALID,916.778,VALID,0,VALID,95.5595,VALID,0,VALID,18.416,VALID,246,VALID,0,
2014-09-24, 01:04:04,VALID,916.783,VALID,0,VALID,95.3918,VALID,0,VALID,18.377,VALID,246,VALID,0,
2014-09-24, 01:05:04,VALID,916.783,VALID,0,VALID,95.1479,VALID,0,VALID,18.3589,VALID,246,VALID,0,
2014-09-24, 01:06:04,VALID,916.811,VALID,0,VALID,94.5532,VALID,0,VALID,18.2601,VALID,244,VALID,0,
2014-09-24, 01:07:04,VALID,916.776,VALID,0,VALID,94.4617,VALID,0,VALID,18.242,VALID,240,VALID,0,
2014-09-24, 01:08:04,VALID,916.806,VALID,0,VALID,94.4541,VALID,0,VALID,18.2225,VALID,240,VALID,0,
2014-09-24, 01:09:04,VALID,916.785,VALID,0,VALID,94.294,VALID,0,VALID,18.203,VALID,239,VALID,0,
2014-09-24, 01:10:04,VALID,916.765,VALID,0,VALID,94.0577,VALID,0,VALID,18.125,VALID,197,VALID,0,
2014-09-24, 01:11:04,VALID,916.719,VALID,0,VALID,94.1187,VALID,0,VALID,18.086,VALID,196,VALID,0,
2014-09-24, 01:12:04,VALID,916.711,VALID,0,VALID,94.6905,VALID,0,VALID,18.086,VALID,185,VALID,0,
2014-09-24, 01:13:04,VALID,916.692,VALID,0,VALID,95.064,VALID,0,VALID,18.1055,VALID,184,VALID,0,
2014-09-24, 01:14:04,VALID,916.708,VALID,0,VALID,95.186,VALID,0,VALID,18.1055,VALID,184,VALID,0,
2014-09-24, 01:15:04,VALID,916.701,VALID,0,VALID,95.247,VALID,0,VALID,18.1055,VALID,184,VALID,0,
2014-09-24, 01:16:04,VALID,916.689,VALID,0,VALID,95.3461,VALID,0,VALID,18.1055,VALID,184,VALID,0,
2014-09-24, 01:17:04,VALID,916.655,VALID,0,VALID,95.4299,VALID,0,VALID,18.086,VALID,184,VALID,0,
2014-09-24, 01:18:04,VALID,916.636,VALID,0,VALID,95.4452,VALID,0,VALID,18.125,VALID,184,VALID,0,
2014-09-24, 01:19:04,VALID,916.674,VALID,0,VALID,95.3003,VALID,0,VALID,18.086,VALID,184,VALID,0,
2014-09-24, 01:20:04,VALID,916.668,VALID,0,VALID,94.3093,VALID,0,VALID,17.9886,VALID,184,VALID,0,
2014-09-24, 01:21:04,VALID,916.706,VALID,0,VALID,94.2788,VALID,0,VALID,17.8911,VALID,184,VALID,0,
2014-09-24, 01:22:04,VALID,916.711,VALID,0,VALID,94.4389,VALID,0,VALID,17.8131,VALID,184,VALID,0,
2014-09-24, 01:23:04,VALID,916.742,VALID,0,VALID,94.7438,VALID,0,VALID,17.756,VALID,184,VALID,0,
2014-09-24, 01:24:04,VALID,916.728,VALID,0,VALID,95.3384,VALID,0,VALID,17.7547,VALID,183,VALID,0,
2014-09-24, 01:25:04,VALID,916.714,VALID,0,VALID,95.5671,VALID,0,VALID,17.795,VALID,184,VALID,0,
2014-09-24, 01:26:04,VALID,916.729,VALID,0,VALID,95.8111,VALID,0,VALID,17.873,VALID,184,VALID,0,
2014-09-24, 01:27:04,VALID,916.726,VALID,0,VALID,95.9483,VALID,0,VALID,17.9106,VALID,184,VALID,0,
2014-09-24, 01:28:04,VALID,916.743,VALID,0,VALID,96.0627,VALID,0,VALID,17.9496,VALID,184,VALID,0,
2014-09-24, 01:29:04,VALID,916.742,VALID,0,VALID,96.1694,VALID,0,VALID,18.0289,VALID,161,VALID,0,
2014-09-24, 01:30:04,VALID,916.79,VALID,0,VALID,96.3066,VALID,0,VALID,18.0679,VALID,120,VALID,0.0949219,
2014-09-24, 01:31:04,VALID,916.743,VALID,0,VALID,96.3524,VALID,0,VALID,18.047,VALID,120,VALID,0,
2014-09-24, 01:32:04,VALID,916.749,VALID,0,VALID,96.4133,VALID,0,VALID,18.0275,VALID,119,VALID,0,
2014-09-24, 01:33:04,VALID,916.736,VALID,0,VALID,96.4743,VALID,0,VALID,18.0275,VALID,120,VALID,0,
2014-09-24, 01:34:04,VALID,916.725,VALID,0,VALID,96.5353,VALID,0,VALID,18.0665,VALID,120,VALID,0,
2014-09-24, 01:35:04,VALID,916.715,VALID,0,VALID,96.5963,VALID,0,VALID,18.047,VALID,119,VALID,0,
2014-09-24, 01:36:04,VALID,916.724,VALID,0,VALID,96.6344,VALID,0,VALID,18.0275,VALID,120,VALID,0,
2014-09-24, 01:37:04,VALID,916.75,VALID,0,VALID,96.6344,VALID,0,VALID,18.0094,VALID,120,VALID,0,
2014-09-24, 01:38:04,VALID,916.758,VALID,0,VALID,96.6192,VALID,0,VALID,17.9704,VALID,120,VALID,0,
2014-09-24, 01:39:04,VALID,916.759,VALID,0,VALID,96.5963,VALID,0,VALID,17.9106,VALID,120,VALID,0,
2014-09-24, 01:40:04,VALID,916.772,VALID,0,VALID,96.5734,VALID,0,VALID,17.8925,VALID,120,VALID,0,
2014-09-24, 01:41:04,VALID,916.775,VALID,0,VALID,96.5506,VALID,0,VALID,17.873,VALID,120,VALID,0,
2014-09-24, 01:42:04,VALID,916.762,VALID,0,VALID,96.5429,VALID,0,VALID,17.8911,VALID,120,VALID,0,
2014-09-24, 01:43:04,VALID,916.748,VALID,0,VALID,96.5429,VALID,0,VALID,17.8925,VALID,120,VALID,0,
2014-09-24, 01:44:04,VALID,916.724,VALID,0,VALID,96.5048,VALID,0,VALID,17.8521,VALID,120,VALID,0,
2014-09-24, 01:45:04,VALID,916.716,VALID,0,VALID,96.4591,VALID,0,VALID,17.8326,VALID,120,VALID,0,
2014-09-24, 01:46:04,VALID,916.701,VALID,0,VALID,96.4057,VALID,0,VALID,17.8131,VALID,120,VALID,0,
2014-09-24, 01:47:04,VALID,916.705,VALID,0,VALID,96.3981,VALID,0,VALID,17.7755,VALID,120,VALID,0,
2014-09-24, 01:48:04,VALID,916.662,VALID,0,VALID,96.3447,VALID,0,VALID,17.7352,VALID,120,VALID,0,
2014-09-24, 01:49:04,VALID,916.643,VALID,0,VALID,96.3447,VALID,0,VALID,17.7352,VALID,120,VALID,0,
2014-09-24, 01:50:04,VALID,916.638,VALID,0,VALID,96.3371,VALID,0,VALID,17.7352,VALID,120,VALID,0,
2014-09-24, 01:51:04,VALID,916.646,VALID,0,VALID,96.3295,VALID,0,VALID,17.7352,VALID,121,VALID,0,
2014-09-24, 01:52:04,VALID,916.611,VALID,0,VALID,96.299,VALID,0,VALID,17.7352,VALID,121,VALID,0,
2014-09-24, 01:53:04,VALID,916.644,VALID,0,VALID,96.2761,VALID,0,VALID,17.7352,VALID,121,VALID,0,
2014-09-24, 01:54:04,VALID,916.64,VALID,0,VALID,96.2685,VALID,0,VALID,17.7365,VALID,121,VALID,0,
2014-09-24, 01:55:04,VALID,916.621,VALID,0,VALID,96.2533,VALID,0,VALID,17.7352,VALID,121,VALID,0,
2014-09-24, 01:56:04,VALID,916.649,VALID,0,VALID,96.2456,VALID,0,VALID,17.7741,VALID,120,VALID,0,
2014-09-24, 01:57:04,VALID,916.656,VALID,0,VALID,96.1465,VALID,0,VALID,17.7923,VALID,120,VALID,0,
2014-09-24, 01:58:04,VALID,916.669,VALID,0,VALID,96.055,VALID,0,VALID,17.8131,VALID,120,VALID,0,
2014-09-24, 01:59:04,VALID,916.639,VALID,0,VALID,95.9178,VALID,0,VALID,17.7936,VALID,120,VALID,0,
2014-09-24, 02:00:04,VALID,916.66,VALID,0,VALID,95.8873,VALID,0,VALID,17.8145,VALID,120,VALID,0,
2014-09-24, 02:01:04,VALID,916.647,VALID,0,VALID,95.8263,VALID,0,VALID,17.8145,VALID,120,VALID,0,
2014-09-24, 02:02:04,VALID,916.645,VALID,0,VALID,95.7501,VALID,0,VALID,17.7936,VALID,120,VALID,0,
2014-09-24, 02:03:04,VALID,916.613,VALID,0,VALID,95.6739,VALID,0,VALID,17.795,VALID,120,VALID,0,
2014-09-24, 02:04:04,VALID,916.627,VALID,0,VALID,95.6205,VALID,0,VALID,17.7755,VALID,120,VALID,0,
2014-09-24, 02:05:04,VALID,916.662,VALID,0,VALID,95.6281,VALID,0,VALID,17.7755,VALID,120,VALID,0,
2014-09-24, 02:06:04,VALID,916.671,VALID,0,VALID,95.651,VALID,0,VALID,17.8145,VALID,120,VALID,0,
2014-09-24, 02:07:04,VALID,916.625,VALID,0,VALID,95.6739,VALID,0,VALID,17.8535,VALID,120,VALID,0,
2014-09-24, 02:08:04,VALID,916.625,VALID,0,VALID,95.6357,VALID,0,VALID,17.8326,VALID,125,VALID,0,
2014-09-24, 02:09:04,VALID,916.634,VALID,0,VALID,95.5824,VALID,0,VALID,17.8521,VALID,125,VALID,0,
2014-09-24, 02:10:04,VALID,916.645,VALID,0,VALID,95.4909,VALID,0,VALID,17.873,VALID,125,VALID,0,
2014-09-24, 02:11:04,VALID,916.64,VALID,0,VALID,95.4604,VALID,0,VALID,17.8716,VALID,128,VALID,0,
2014-09-24, 02:12:04,VALID,916.666,VALID,0,VALID,95.4452,VALID,0,VALID,17.8911,VALID,128,VALID,0,
2014-09-24, 02:13:04,VALID,916.664,VALID,0,VALID,95.3537,VALID,0,VALID,17.9314,VALID,131,VALID,0,
2014-09-24, 02:14:04,VALID,916.635,VALID,0,VALID,95.2622,VALID,0,VALID,17.9509,VALID,131,VALID,0,
2014-09-24, 02:15:04,VALID,916.635,VALID,0,VALID,95.1555,VALID,0,VALID,17.9704,VALID,134,VALID,0,
2014-09-24, 02:16:04,VALID,916.635,VALID,0,VALID,94.881,VALID,0,VALID,17.9899,VALID,136,VALID,0,
2014-09-24, 02:17:04,VALID,916.602,VALID,0,VALID,94.7896,VALID,0,VALID,17.9704,VALID,139,VALID,0,
2014-09-24, 02:18:04,VALID,916.638,VALID,0,VALID,94.6981,VALID,0,VALID,17.9496,VALID,140,VALID,0,
2014-09-24, 02:19:04,VALID,916.594,VALID,0,VALID,94.5304,VALID,0,VALID,17.9314,VALID,134,VALID,0,
2014-09-24, 02:20:04,VALID,916.578,VALID,0,VALID,94.8048,VALID,0,VALID,17.8925,VALID,131,VALID,0,
2014-09-24, 02:21:04,VALID,916.596,VALID,0,VALID,95.0335,VALID,0,VALID,17.9119,VALID,126,VALID,0,
2014-09-24, 02:22:04,VALID,916.598,VALID,0,VALID,95.186,VALID,0,VALID,17.9314,VALID,126,VALID,0,
2014-09-24, 02:23:04,VALID,916.608,VALID,0,VALID,95.1021,VALID,0,VALID,17.8925,VALID,124,VALID,0,
2014-09-24, 02:24:04,VALID,916.595,VALID,0,VALID,95.0869,VALID,0,VALID,17.8925,VALID,121,VALID,0,
2014-09-24, 02:25:04,VALID,916.62,VALID,0,VALID,95.1097,VALID,0,VALID,17.8521,VALID,124,VALID,0,
2014-09-24, 02:26:04,VALID,916.629,VALID,0,VALID,95.003,VALID,0,VALID,17.7936,VALID,133,VALID,0,
2014-09-24, 02:27:04,VALID,916.676,VALID,0,VALID,95.0716,VALID,0,VALID,17.7352,VALID,141,VALID,0,
2014-09-24, 02:28:04,VALID,916.694,VALID,0,VALID,95.2241,VALID,0,VALID,17.6962,VALID,140,VALID,0,
2014-09-24, 02:29:04,VALID,916.721,VALID,0,VALID,95.4071,VALID,0,VALID,17.6975,VALID,135,VALID,0,
2014-09-24, 02:30:04,VALID,916.708,VALID,0,VALID,95.6053,VALID,0,VALID,17.6767,VALID,135,VALID,0,
2014-09-24, 02:31:04,VALID,916.709,VALID,0,VALID,95.6053,VALID,0,VALID,17.678,VALID,135,VALID,0,
2014-09-24, 02:32:04,VALID,916.723,VALID,0,VALID,95.712,VALID,0,VALID,17.6377,VALID,135,VALID,0,
2014-09-24, 02:33:04,VALID,916.716,VALID,0,VALID,95.6129,VALID,0,VALID,17.5806,VALID,135,VALID,0,
2014-09-24, 02:34:04,VALID,916.716,VALID,0,VALID,95.6815,VALID,0,VALID,17.5416,VALID,135,VALID,0,
2014-09-24, 02:35:04,VALID,916.733,VALID,0,VALID,95.8797,VALID,0,VALID,17.6196,VALID,135,VALID,0,
2014-09-24, 02:36:04,VALID,916.7,VALID,0,VALID,96.0245,VALID,0,VALID,17.678,VALID,139,VALID,0,
2014-09-24, 02:37:04,VALID,916.715,VALID,0,VALID,96.0093,VALID,0,VALID,17.6585,VALID,140,VALID,0,
2014-09-24, 02:38:04,VALID,916.654,VALID,0,VALID,96.0245,VALID,0,VALID,17.678,VALID,139,VALID,0,
2014-09-24, 02:39:04,VALID,916.656,VALID,0,VALID,96.0169,VALID,0,VALID,17.6767,VALID,139,VALID,0,
2014-09-24, 02:40:04,VALID,916.654,VALID,0,VALID,96.0322,VALID,0,VALID,17.6975,VALID,139,VALID,0,
2014-09-24, 02:41:04,VALID,916.629,VALID,0,VALID,95.9254,VALID,0,VALID,17.6377,VALID,139,VALID,0,
2014-09-24, 02:42:04,VALID,916.64,VALID,0,VALID,95.6053,VALID,0,VALID,17.5416,VALID,140,VALID,0,
2014-09-24, 02:43:04,VALID,916.604,VALID,0,VALID,95.4909,VALID,0,VALID,17.4818,VALID,139,VALID,0,
2014-09-24, 02:44:04,VALID,916.575,VALID,0,VALID,95.4985,VALID,0,VALID,17.4623,VALID,140,VALID,0,
2014-09-24, 02:45:04,VALID,916.565,VALID,0,VALID,95.712,VALID,0,VALID,17.5026,VALID,152,VALID,0,
2014-09-24, 02:46:04,VALID,916.551,VALID,0,VALID,95.7425,VALID,0,VALID,17.5026,VALID,151,VALID,0,
2014-09-24, 02:47:04,VALID,916.524,VALID,0,VALID,95.7425,VALID,0,VALID,17.4818,VALID,150,VALID,0,
2014-09-24, 02:48:04,VALID,916.505,VALID,0,VALID,95.8035,VALID,0,VALID,17.4428,VALID,138,VALID,0,
2014-09-24, 02:49:04,VALID,916.517,VALID,0,VALID,95.9178,VALID,0,VALID,17.4831,VALID,128,VALID,0,
2014-09-24, 02:50:04,VALID,916.458,VALID,0,VALID,96.1084,VALID,0,VALID,17.5221,VALID,128,VALID,0,
2014-09-24, 02:51:04,VALID,916.435,VALID,0,VALID,96.1465,VALID,0,VALID,17.5013,VALID,128,VALID,0,
2014-09-24, 02:52:04,VALID,916.435,VALID,0,VALID,96.1694,VALID,0,VALID,17.5013,VALID,135,VALID,0,
2014-09-24, 02:53:04,VALID,916.424,VALID,0,VALID,96.2075,VALID,0,VALID,17.5013,VALID,128,VALID,0,
2014-09-24, 02:54:04,VALID,916.375,VALID,0,VALID,96.2304,VALID,0,VALID,17.5416,VALID,133,VALID,0,
2014-09-24, 02:55:04,VALID,916.406,VALID,0,VALID,96.2609,VALID,0,VALID,17.5611,VALID,129,VALID,0,
2014-09-24, 02:56:04,VALID,916.381,VALID,0,VALID,96.2533,VALID,0,VALID,17.5792,VALID,135,VALID,0,
2014-09-24, 02:57:04,VALID,916.388,VALID,0,VALID,96.238,VALID,0,VALID,17.5987,VALID,134,VALID,0,
2014-09-24, 02:58:04,VALID,916.388,VALID,0,VALID,96.2228,VALID,0,VALID,17.5792,VALID,129,VALID,0,
2014-09-24, 02:59:04,VALID,916.426,VALID,0,VALID,96.0322,VALID,0,VALID,17.5208,VALID,114,VALID,0,
2014-09-24, 03:00:04,VALID,916.403,VALID,0,VALID,95.9331,VALID,0,VALID,17.4818,VALID,114,VALID,0.154687,
2014-09-24, 03:01:04,VALID,916.415,VALID,0,VALID,96.1008,VALID,0,VALID,17.5221,VALID,115,VALID,0,
2014-09-24, 03:02:04,VALID,916.362,VALID,0,VALID,96.2228,VALID,0,VALID,17.5987,VALID,130,VALID,0.0148437,
2014-09-24, 03:03:04,VALID,916.38,VALID,0,VALID,96.2533,VALID,0,VALID,17.6377,VALID,129,VALID,0,
2014-09-24, 03:04:04,VALID,916.39,VALID,0,VALID,96.1465,VALID,0,VALID,17.6585,VALID,142,VALID,0,
2014-09-24, 03:05:04,VALID,916.393,VALID,0,VALID,96.0322,VALID,0,VALID,17.6585,VALID,139,VALID,0,
2014-09-24, 03:06:04,VALID,916.42,VALID,0,VALID,95.9712,VALID,0,VALID,17.6585,VALID,140,VALID,0,
2014-09-24, 03:07:04,VALID,916.437,VALID,0,VALID,95.9178,VALID,0,VALID,17.6572,VALID,141,VALID,0,
2014-09-24, 03:08:04,VALID,916.439,VALID,0,VALID,95.8492,VALID,0,VALID,17.6585,VALID,141,VALID,0,
2014-09-24, 03:09:04,VALID,916.47,VALID,0,VALID,95.8035,VALID,0,VALID,17.6585,VALID,141,VALID,0,
2014-09-24, 03:10:04,VALID,916.46,VALID,0,VALID,95.7196,VALID,0,VALID,17.6182,VALID,141,VALID,0,
2014-09-24, 03:11:04,VALID,916.471,VALID,0,VALID,95.6586,VALID,0,VALID,17.6196,VALID,137,VALID,0,
2014-09-24, 03:12:04,VALID,916.481,VALID,0,VALID,95.6891,VALID,0,VALID,17.6377,VALID,145,VALID,0,
2014-09-24, 03:13:04,VALID,916.476,VALID,0,VALID,95.6739,VALID,0,VALID,17.7365,VALID,140,VALID,0,
2014-09-24, 03:14:04,VALID,916.467,VALID,0,VALID,95.4985,VALID,0,VALID,17.7755,VALID,131,VALID,0,
2014-09-24, 03:15:04,VALID,916.464,VALID,0,VALID,95.3079,VALID,0,VALID,17.7936,VALID,130,VALID,0,
2014-09-24, 03:16:04,VALID,916.461,VALID,0,VALID,94.8963,VALID,0,VALID,17.8131,VALID,130,VALID,0,
2014-09-24, 03:17:04,VALID,916.439,VALID,0,VALID,94.3931,VALID,0,VALID,17.8716,VALID,131,VALID,0,
2014-09-24, 03:18:04,VALID,916.418,VALID,0,VALID,93.7833,VALID,0,VALID,17.8911,VALID,132,VALID,0,
2014-09-24, 03:19:04,VALID,916.425,VALID,0,VALID,93.4173,VALID,0,VALID,17.9106,VALID,132,VALID,0,
2014-09-24, 03:20:04,VALID,916.399,VALID,0,VALID,93.1048,VALID,0,VALID,17.9691,VALID,151,VALID,0,
2014-09-24, 03:21:04,VALID,916.387,VALID,0,VALID,92.8075,VALID,0,VALID,18.0679,VALID,151,VALID,0,
2014-09-24, 03:22:04,VALID,916.387,VALID,0,VALID,92.3806,VALID,0,VALID,18.047,VALID,151,VALID,0,
2014-09-24, 03:23:04,VALID,916.39,VALID,0,VALID,92.0909,VALID,0,VALID,18.008,VALID,151,VALID,0,
2014-09-24, 03:24:04,VALID,916.382,VALID,0,VALID,92.0909,VALID,0,VALID,17.9886,VALID,149,VALID,0,
2014-09-24, 03:25:04,VALID,916.392,VALID,0,VALID,92.2738,VALID,0,VALID,17.9886,VALID,156,VALID,0,
2014-09-24, 03:26:04,VALID,916.377,VALID,0,VALID,92.2662,VALID,0,VALID,17.9691,VALID,155,VALID,0,
2014-09-24, 03:27:04,VALID,916.378,VALID,0,VALID,92.3424,VALID,0,VALID,17.9691,VALID,155,VALID,0,
2014-09-24, 03:28:04,VALID,916.386,VALID,0,VALID,92.3043,VALID,0,VALID,17.9509,VALID,142,VALID,0,
2014-09-24, 03:29:04,VALID,916.388,VALID,0,VALID,92.5025,VALID,0,VALID,17.8925,VALID,143,VALID,0,
2014-09-24, 03:30:04,VALID,916.371,VALID,0,VALID,92.6779,VALID,0,VALID,17.8535,VALID,143,VALID,0,
2014-09-24, 03:31:04,VALID,916.391,VALID,0,VALID,92.8837,VALID,0,VALID,17.8145,VALID,146,VALID,0,
2014-09-24, 03:32:04,VALID,916.376,VALID,0,VALID,93.1353,VALID,0,VALID,17.795,VALID,150,VALID,0,
2014-09-24, 03:33:04,VALID,916.401,VALID,0,VALID,93.2344,VALID,0,VALID,17.7157,VALID,150,VALID,0,
2014-09-24, 03:34:04,VALID,916.431,VALID,0,VALID,93.6079,VALID,0,VALID,17.6962,VALID,151,VALID,0,
2014-09-24, 03:35:04,VALID,916.415,VALID,0,VALID,93.9815,VALID,0.107441,VALID,17.6364,VALID,148,VALID,0,
2014-09-24, 03:36:04,VALID,916.379,VALID,0,VALID,94.4008,VALID,0.107441,VALID,17.6182,VALID,156,VALID,0,
2014-09-24, 03:37:04,VALID,916.402,VALID,0,VALID,94.9496,VALID,0,VALID,17.5974,VALID,150,VALID,0,
2014-09-24, 03:38:04,VALID,916.387,VALID,0,VALID,95.125,VALID,0,VALID,17.5779,VALID,152,VALID,0.0621094,
2014-09-24, 03:39:04,VALID,916.365,VALID,0,VALID,95.1555,VALID,0,VALID,17.5389,VALID,137,VALID,0,
2014-09-24, 03:40:04,VALID,916.38,VALID,0,VALID,95.2546,VALID,0,VALID,17.5598,VALID,153,VALID,0.00585938,
2014-09-24, 03:41:04,VALID,916.369,VALID,0,VALID,95.3461,VALID,0.107441,VALID,17.5208,VALID,150,VALID,0.161719,
2014-09-24, 03:42:04,VALID,916.39,VALID,0,VALID,95.5367,VALID,0,VALID,17.5013,VALID,142,VALID,0.108984,
2014-09-24, 03:43:04,VALID,916.393,VALID,0,VALID,95.6205,VALID,0,VALID,17.461,VALID,139,VALID,0,
2014-09-24, 03:44:04,VALID,916.365,VALID,0,VALID,95.7196,VALID,0.107441,VALID,17.4805,VALID,136,VALID,0,
2014-09-24, 03:45:04,VALID,916.334,VALID,0,VALID,95.8111,VALID,0.107441,VALID,17.5792,VALID,120,VALID,0.375,
2014-09-24, 03:46:04,VALID,916.369,VALID,0,VALID,95.7196,VALID,0,VALID,17.5779,VALID,128,VALID,0.289844,
2014-09-24, 03:47:04,VALID,916.335,VALID,0,VALID,95.6357,VALID,0.107441,VALID,17.6962,VALID,119,VALID,0.321094,
2014-09-24, 03:48:04,VALID,916.332,VALID,0,VALID,95.4452,VALID,0.107441,VALID,17.7741,VALID,118,VALID,0.8875,
2014-09-24, 03:49:04,VALID,916.34,VALID,0,VALID,95.0106,VALID,0.107441,VALID,17.8326,VALID,107,VALID,1.50156,
2014-09-24, 03:50:04,VALID,916.35,VALID,0,VALID,94.1416,VALID,0,VALID,17.8925,VALID,121,VALID,0.566406,
2014-09-24, 03:51:04,VALID,916.327,VALID,0,VALID,93.4783,VALID,0,VALID,17.9314,VALID,113,VALID,0.211719,
2014-09-24, 03:52:04,VALID,916.355,VALID,0,VALID,93.12,VALID,0,VALID,17.9496,VALID,119,VALID,0.582422,
2014-09-24, 03:53:04,VALID,916.351,VALID,0,VALID,92.7541,VALID,0,VALID,17.9106,VALID,113,VALID,0.0816406,
2014-09-24, 03:54:04,VALID,916.359,VALID,0,VALID,92.6093,VALID,0,VALID,17.8911,VALID,114,VALID,0.448047,
2014-09-24, 03:55:04,VALID,916.346,VALID,0,VALID,92.5559,VALID,0,VALID,17.8535,VALID,111,VALID,0.664453,
2014-09-24, 03:56:04,VALID,916.359,VALID,0,VALID,92.5102,VALID,0,VALID,17.834,VALID,100,VALID,0,
2014-09-24, 03:57:04,VALID,916.358,VALID,0,VALID,92.655,VALID,0,VALID,17.8145,VALID,98,VALID,0.0105469,